Погода в Боровской

Россия / Республика Коми     65˚14′40″N   51˚51′46″E
темп.,
°C
ветер,
м/с
пор.,
м/с
влажн.,
%
обл.,
%
осадки,
мм/ч
давл.,
гПа
погр.,
м
17 января, вс
вс1700:00−27˚ссз229723 0.0 101126
03:00−27˚ссз129612 0.0 101119
06:00−26˚ссз129633 0.0 100927
09:00−25˚зсз229762 0.0 100724
12:00−23˚зсз239489 0.0 1007122
15:00−22˚зсз129395 0.0 100750
18:00−23˚зсз229488 0.0 100727
21:00−24˚ссз129474 0.0 100920
18 января, пн
пн1800:00−25˚ссз129874 0.0 101019
03:00−27˚с129973 0.0 101219
06:00−29˚с119914 0.0 101319
09:00−30˚ссв11987 0.0 101519
12:00−28˚ююз11960 0.0 101619
15:00−28˚ююв129511 0.0 101719
18:00−28˚ююв229554 0.0 101721
21:00−27˚юв239465 0.0 101773
19 января, вт
вт1900:00−24˚ююв3793100 0.0 1016235
03:00−22˚ююв4893100 0.0 1015319
06:00−20˚ююв4898100 0.6 1013411
09:00−20˚ююв4897100 2.3 1013466
12:00−20˚ююв3697100 0.8 1012384
15:00−19˚юв2597100 1.3 1011321
18:00−19˚юв2597100 0.4 1011287
21:00−19˚юв2597100 0.6 1011233
20 января, ср
ср2000:00−19˚вюв2498100 0.4 1010179
03:00−19˚в2498100 0.8 1010197
06:00−19˚всв2498100 0.4 1010192
09:00−21˚св2598100 0.6 1010208
12:00−21˚св2498100 0.1 1010233
15:00−22˚ссв2598100 0.2 1011242
18:00−22˚ссв2598100 0.1 1011209
21:00−23˚с3698100 0.2 1012260
21 января, чт
чт2100:00−24˚ссв3697100 0.1 1013274
03:00−25˚с3698100 0.2 1014256
06:00−27˚с2598100 0.1 1015220
09:00−28˚с2499100 0.1 1016151
12:00−28˚с2498100 0.1 1017177
15:00−30˚с2299100 0.1 101832
18:00−31˚ссз1299100 0.0 101919
21:00−31˚сз1198100 0.1 102022